Regional Weather Roundup
Issued by NWS Upton, NY

Current Version | Previous Version | Text Only | Print | Product List | Glossary On
Versions: 1 2 3 4 5 6 7 8 9 10 11 12 13 14 15 16 17 18 19 20 21 22 23 24 25 26 27
000
ASUS41 KOKX 160608
RWROKX

REGIONAL WEATHER ROUNDUP
NATIONAL WEATHER SERVICE NEW YORK NY
100 AM EST MON JAN 16 2017

NOTE: "FAIR" INDICATES FEW OR NO CLOUDS BELOW 12,000 FEET WITH NO
SIGNIFICANT WEATHER AND/OR OBSTRUCTIONS TO VISIBILITY.

NYZ071-072-176-178-NJZ106-104-160700-
NEW YORK CITY METRO AREA

CITY           SKY/WX    TMP DP  RH WIND       PRES   REMARKS
Central Park   CLEAR     31  19  61 NW3       30.44R
Wall St Helipt PTCLDY    34  26  72 NE3       30.44R
Bronx Bot Gard NOT AVBL
LaGuardia APRT CLEAR     34  21  59 N3        30.42S
Kennedy INTL   PTCLDY    31  18  58 N5        30.43S WCI  26
Breezy Point     N/A     32 N/A N/A NW5         N/A  WCI  27
Newark/Liberty CLEAR     30  19  63 N7        30.43R WCI  23
Teterboro        N/A     30  19  63 N5        30.42S WCI  25
$$

NYZ177-179-078>081-160700-
LONG ISLAND NEW YORK

CITY           SKY/WX    TMP DP  RH WIND       PRES   REMARKS
Jones Beach      N/A    N/A N/A N/A N5          N/A
Matinecock PT  NOT AVBL
Farmingdale    CLEAR     27  21  78 N5        30.42R WCI  22
MacArthur/ISP  CLEAR     25  22  88 N5        30.42R WCI  19
Shirley        CLEAR     24  19  81 N5        30.43R WCI  18
Westhampton    CLEAR     15  11  83 CALM      30.43R
Southampton    NOT AVBL
Bridgehampton  NOT AVBL
East Hampton     N/A     19  16  90 CALM      30.41R
Montauk          N/A     28  19  69 CALM      30.41S
$$

NYZ052-065-067-160700-
HUDSON VALLEY

CITY           SKY/WX    TMP DP  RH WIND       PRES   REMARKS
White Plains   CLEAR     27  17  66 N5        30.40R WCI  22
Newburgh       NOT AVBL
Montgomery     CLEAR     19  15  84 CALM      30.41R
Poughkeepsie   CLEAR     18  15  88 CALM      30.43R
Albany         CLEAR     20  13  74 CALM      30.43S
$$

NJZ001-105-106-008-010-013-015-019>022-104-160700-
NEW JERSEY

CITY           SKY/WX    TMP DP  RH WIND       PRES   REMARKS
Newark/Liberty CLEAR     30  19  63 N7        30.43R WCI  23
Teterboro        N/A     30  19  63 N5        30.42S WCI  25
Caldwell       CLEAR     22  18  85 CALM      30.43S
Somerville     CLOUDY    19  15  84 CALM      30.42R
Linden           N/A     28  20  72 CALM      30.43S
Sussex         CLEAR     16  13  88 CALM      30.41R
Andover          N/A     17  13  84 CALM      30.41S
Trenton        PTCLDY    26  19  74 NW3       30.42S
Millville      CLEAR     25  23  92 CALM      30.43S
Atlantic City  CLEAR     27  20  75 NW5       30.42F WCI  22
Wrightstown    CLOUDY    27  20  72 W3        30.40S
Toms River     CLOUDY    20  18  92 CALM      30.43S
Belmar         PTCLDY    25  20  81 NW5       30.43R WCI  19
$$

PAZ047>061-062-071-160700-
EASTERN PENNSYLVANIA

CITY           SKY/WX    TMP DP  RH WIND       PRES   REMARKS
Philadelphia   PTCLDY    31  19  61 N3        30.45S
Allentown      CLOUDY    20  15  81 SW3       30.42S
Scranton       CLOUDY    17  14  88 E6        30.40R WCI   9
$$

CTZ002-004>006-009-010-012-RIZ004-006-007-MAZ004-011-015-160700-
SOUTHERN NEW ENGLAND
 IN CT

CITY           SKY/WX    TMP DP  RH WIND       PRES   REMARKS
Bradley INTL   CLEAR     21  14  74 CALM      30.42R
Hartford       CLEAR     21  17  84 CALM      30.43R
Danbury        CLEAR     17  13  84 CALM      30.42R
Wtrbury/Oxford CLEAR     19  10  68 N7        30.40R WCI  10
Bridgeport     CLEAR     27  20  75 N5        30.43R WCI  22
Meriden        CLEAR     20  15  81 CALM      30.43R
New Haven      CLEAR     21  16  81 CALM      30.42R
Chester          N/A     27  14  59 CALM      30.40S
Groton         CLEAR     22  17  81 N3        30.41R
Wilimantic     CLEAR     19  15  84 CALM      30.43R

 IN RI

CITY           SKY/WX    TMP DP  RH WIND       PRES   REMARKS
Providence     CLEAR     23  16  74 W5        30.42R WCI  17
Block Island   NOT AVBL
Westerly       CLEAR     20  15  81 N3        30.42R
 IN MA

CITY           SKY/WX    TMP DP  RH WIND       PRES   REMARKS
Boston         CLEAR     27  10  49 N5        30.42R WCI  22
Worcester      CLEAR     20  10  65 CALM      30.35S
Westfield      CLEAR     21  15  78 CALM      30.41R
Provincetown   CLEAR     32  17  54 N7        30.41R WCI  26
Nantucket      CLEAR     27  16  63 N6        30.39S WCI  20
$$

ANZ330-335-338-340-345-350-353-355-160700-
COASTAL MARINE OBSERVATIONS


STATION/POSITION TIME  SKY/WX   TEMP    WIND        PRES    VSBY  WAVE
                                AIR SEA DIR/SP/G                  HT/PER
                 (UTC)          (F)     (DEG/KT/KT) (MB)    (MI)  (FT/S)
NY HARB ENTRANCE 0450            37 44  330/  8/ 10 1029.7          1/11
20 S FIRE ISLAND 0450            38 45  350/  8/ 10 1029.3          1/11
GREAT SOUTH BAY  NOT AVBL
23 SSW MONTAUK P 0450            38 47  360/  4/  8 1029.7          1/11
15 E BARNEGAT LI 0530               44                N/A           2/11
HUDSON CANYON    0450            42 53              1029.4          2/11
KINGS POINT      0542            33 38              1030.1
EXECUTION ROCKS  0545            32     350/  4/  6   N/A
CENTRAL LI SOUND 0530            34      20/ 12/ 14   N/A           1
EASTERN LI SOUND NOT AVBL
ROBBINS REEF     0548            31     330/  6/  7 1030.4
$$


>>>>>>>>>>>>>>>>>>>>>>>>>>>> KEY <<<<<<<<<<<<<<<<<<<<<<<<<<<
>                                                          <
>     SKY/WX - Sky Condition/Present Weather               <
>     TMP    - Temperature in Fahrenheit                   <
>     DP     - Dew Point in Fahrenheit                     <
>     RH     - Relative Humidity in Percent                <
>     WIND   - Direction (from) and Speed in MPH           <
>     PRES   - Mean Sea Level Pressure (inches of Hg)      <
>     WCI    - Wind Chill Index                            <
>     VSB    - VISIBILITY IN MILES                         <
>     HX     - HEAT INDEX                                  <
>     TC     - TEMPERATURE IN CELSIUS                      <
>     VRB    - VARIABLE WIND DIRECTION                     <
>                                                          <
>>>>>>>>>>>>>>>>>>>>>>>>>>>> KEY <<<<<<<<<<<<<<<<<<<<<<<<<<<




USA.gov is the U.S. government's official web portal to all federal, state and local government web resources and services.